Time,TemperatureF,DewpointF,PressureIn,WindDirection,WindDirectionDegrees,WindSpeedMPH,WindSpeedGustMPH,Humidity,HourlyPrecipIn,Conditions,Clouds,dailyrainin,SoftwareType,DateUTC
2013-05-22 00:33:00,69.0,-99.9,29.85,SSW,208,-999.0,5.0,-999,-99.99,,,-99.99,,2013-05-22 04:33:00,
2013-05-22 00:43:00,69.0,-99.9,29.85,SSW,208,-999.0,5.0,-999,-99.99,,,-99.99,,2013-05-22 04:43:00,
2013-05-22 00:52:00,67.0,-99.9,29.86,SW,232,-999.0,-999.0,-999,-99.99,,,-99.99,,2013-05-22 04:52:00,
2013-05-22 01:32:00,67.0,-99.9,29.86,SW,232,-999.0,-999.0,-999,-99.99,,,-99.99,,2013-05-22 05:32:00,
2013-05-22 01:42:00,67.0,-99.9,29.86,SW,232,-999.0,-999.0,-999,-99.99,,,-99.99,,2013-05-22 05:42:00,
2013-05-22 01:52:00,67.0,-99.9,29.85,SSW,198,-999.0,-999.0,-999,-99.99,,,-99.99,,2013-05-22 05:52:00,
2013-05-22 02:32:00,67.0,-99.9,29.85,SSW,198,-999.0,-999.0,-999,-99.99,,,-99.99,,2013-05-22 06:32:00,
2013-05-22 02:42:00,67.0,-99.9,29.85,SSW,198,-999.0,-999.0,-999,-99.99,,,-99.99,,2013-05-22 06:42:00,
2013-05-22 03:52:00,65.0,-99.9,29.84,WSW,249,-999.0,-999.0,-999,-99.99,,,-99.99,,2013-05-22 07:52:00,
2013-05-22 04:32:00,65.0,-99.9,29.84,WSW,249,-999.0,-999.0,-999,-99.99,,,-99.99,,2013-05-22 08:32:00,
2013-05-22 04:42:00,65.0,-99.9,29.84,WSW,249,-999.0,-999.0,-999,-99.99,,,-99.99,,2013-05-22 08:42:00,
2013-05-22 04:52:00,66.0,-99.9,29.84,WSW,248,-999.0,-999.0,-999,-99.99,,,-99.99,,2013-05-22 08:52:00,
2013-05-22 05:33:00,66.0,-99.9,29.84,WSW,248,-999.0,-999.0,-999,-99.99,,,-99.99,,2013-05-22 09:33:00,
2013-05-22 05:43:00,66.0,-99.9,29.84,WSW,248,-999.0,-999.0,-999,-99.99,,,-99.99,,2013-05-22 09:43:00,
2013-05-22 05:52:00,63.0,-99.9,29.85,WSW,248,-999.0,-999.0,-999,-99.99,,,-99.99,,2013-05-22 09:52:00,
2013-05-22 06:23:00,63.0,-99.9,29.85,WSW,248,-999.0,-999.0,-999,-99.99,,,-99.99,,2013-05-22 10:23:00,
2013-05-22 06:33:00,63.0,-99.9,29.85,WSW,248,-999.0,-999.0,-999,-99.99,,,-99.99,,2013-05-22 10:33:00,
2013-05-22 06:42:00,63.0,-99.9,29.85,WSW,248,-999.0,-999.0,-999,-99.99,,,-99.99,,2013-05-22 10:42:00,
2013-05-22 06:52:00,65.0,-99.9,29.87,WSW,248,-999.0,-999.0,-999,-99.99,,,-99.99,,2013-05-22 10:52:00,
2013-05-22 07:22:00,65.0,-99.9,29.87,WSW,248,-999.0,-999.0,-999,-99.99,,,-99.99,,2013-05-22 11:22:00,
2013-05-22 07:32:00,65.0,-99.9,29.87,WSW,248,-999.0,-999.0,-999,-99.99,,,-99.99,,2013-05-22 11:32:00,
2013-05-22 07:42:00,65.0,-99.9,29.87,WSW,248,-999.0,-999.0,-999,-99.99,,,-99.99,,2013-05-22 11:42:00,
2013-05-22 07:52:00,68.0,-99.9,29.89,SW,233,-999.0,-999.0,-999,-99.99,,,-99.99,,2013-05-22 11:52:00,
2013-05-22 08:22:00,68.0,-99.9,29.89,SW,233,-999.0,-999.0,-999,-99.99,,,-99.99,,2013-05-22 12:22:00,
2013-05-22 08:32:00,68.0,-99.9,29.89,SW,233,-999.0,-999.0,-999,-99.99,,,-99.99,,2013-05-22 12:32:00,
2013-05-22 08:42:00,68.0,-99.9,29.89,SW,233,-999.0,-999.0,-999,-99.99,,,-99.99,,2013-05-22 12:42:00,
2013-05-22 08:52:00,69.0,-99.9,29.90,East,83,-999.0,-999.0,-999,-99.99,,,-99.99,,2013-05-22 12:52:00,
2013-05-22 09:22:00,69.0,-99.9,29.90,East,83,-999.0,-999.0,-999,-99.99,,,-99.99,,2013-05-22 13:22:00,
2013-05-22 09:32:00,69.0,-99.9,29.90,East,83,-999.0,-999.0,-999,-99.99,,,-99.99,,2013-05-22 13:32:00,
2013-05-22 09:42:00,69.0,-99.9,29.90,East,83,-999.0,-999.0,-999,-99.99,,,-99.99,,2013-05-22 13:42:00,
2013-05-22 09:53:00,69.0,-99.9,29.91,SE,130,-999.0,6.0,-999,-99.99,,,-99.99,,2013-05-22 13:53:00,
2013-05-22 10:32:00,69.0,-99.9,29.91,SE,130,-999.0,6.0,-999,-99.99,,,-99.99,,2013-05-22 14:32:00,
2013-05-22 10:42:00,69.0,-99.9,29.91,SE,130,-999.0,6.0,-999,-99.99,,,-99.99,,2013-05-22 14:42:00,
2013-05-22 10:53:00,71.0,-99.9,29.91,SSW,208,-999.0,8.0,-999,-99.99,,,-99.99,,2013-05-22 14:53:00,
2013-05-22 11:22:00,71.0,-99.9,29.91,SSW,208,-999.0,8.0,-999,-99.99,,,-99.99,,2013-05-22 15:22:00,
2013-05-22 11:33:00,71.0,-99.9,29.91,SSW,208,-999.0,8.0,-999,-99.99,,,-99.99,,2013-05-22 15:33:00,
2013-05-22 11:43:00,71.0,-99.9,29.91,SSW,208,-999.0,8.0,-999,-99.99,,,-99.99,,2013-05-22 15:43:00,
2013-05-22 11:52:00,73.0,-99.9,29.90,West,276,-999.0,8.0,-999,-99.99,,,-99.99,,2013-05-22 15:52:00,
2013-05-22 12:23:00,73.0,-99.9,29.90,West,276,-999.0,8.0,-999,-99.99,,,-99.99,,2013-05-22 16:23:00,
2013-05-22 12:33:00,73.0,-99.9,29.90,West,276,-999.0,8.0,-999,-99.99,,,-99.99,,2013-05-22 16:33:00,
2013-05-22 12:42:00,73.0,-99.9,29.90,West,276,-999.0,8.0,-999,-99.99,,,-99.99,,2013-05-22 16:42:00,
2013-05-22 12:52:00,75.0,-99.9,29.88,NW,305,5.0,10.0,-999,-99.99,,,-99.99,,2013-05-22 16:52:00,
2013-05-22 13:23:00,75.0,-99.9,29.88,NW,305,5.0,10.0,-999,-99.99,,,-99.99,,2013-05-22 17:23:00,
2013-05-22 13:33:00,75.0,-99.9,29.88,NW,305,5.0,10.0,-999,-99.99,,,-99.99,,2013-05-22 17:33:00,
2013-05-22 13:42:00,75.0,-99.9,29.88,NW,305,5.0,10.0,-999,-99.99,,,-99.99,,2013-05-22 17:42:00,
2013-05-22 13:52:00,80.0,-99.9,29.86,SW,232,9.0,9.0,-999,-99.99,,,-99.99,,2013-05-22 17:52:00,
2013-05-22 14:22:00,80.0,-99.9,29.86,SW,232,9.0,9.0,-999,-99.99,,,-99.99,,2013-05-22 18:22:00,
2013-05-22 14:34:00,80.0,-99.9,29.86,SW,232,9.0,9.0,-999,-99.99,,,-99.99,,2013-05-22 18:34:00,
2013-05-22 14:42:00,80.0,-99.9,29.86,SW,232,9.0,9.0,-999,-99.99,,,-99.99,,2013-05-22 18:42:00,
2013-05-22 14:52:00,83.0,-99.9,29.84,WSW,243,3.0,7.0,-999,-99.99,,,-99.99,,2013-05-22 18:52:00,
2013-05-22 15:32:00,83.0,-99.9,29.84,WSW,243,3.0,7.0,-999,-99.99,,,-99.99,,2013-05-22 19:32:00,
2013-05-22 15:42:00,83.0,-99.9,29.84,WSW,243,3.0,7.0,-999,-99.99,,,-99.99,,2013-05-22 19:42:00,
2013-05-22 15:52:00,84.0,-99.9,29.83,SSE,150,6.0,8.0,-999,-99.99,,,-99.99,,2013-05-22 19:52:00,
2013-05-22 16:32:00,84.0,-99.9,29.83,SSE,150,6.0,8.0,-999,-99.99,,,-99.99,,2013-05-22 20:32:00,
2013-05-22 16:42:00,84.0,-99.9,29.83,SSE,150,6.0,8.0,-999,-99.99,,,-99.99,,2013-05-22 20:42:00,
2013-05-22 16:52:00,83.0,-99.9,29.81,SSW,213,5.0,11.0,-999,-99.99,,,-99.99,,2013-05-22 20:52:00,
2013-05-22 17:22:00,83.0,-99.9,29.81,SSW,213,5.0,11.0,-999,-99.99,,,-99.99,,2013-05-22 21:22:00,
2013-05-22 17:33:00,83.0,-99.9,29.81,SSW,213,5.0,11.0,-999,-99.99,,,-99.99,,2013-05-22 21:33:00,
2013-05-22 17:42:00,83.0,-99.9,29.81,SSW,213,5.0,11.0,-999,-99.99,,,-99.99,,2013-05-22 21:42:00,
2013-05-22 17:52:00,84.0,-99.9,29.80,South,177,6.0,12.0,-999,-99.99,,,-99.99,,2013-05-22 21:52:00,
2013-05-22 18:22:00,84.0,-99.9,29.80,South,177,6.0,12.0,-999,-99.99,,,-99.99,,2013-05-22 22:22:00,
2013-05-22 18:33:00,84.0,-99.9,29.80,South,177,6.0,12.0,-999,-99.99,,,-99.99,,2013-05-22 22:33:00,
2013-05-22 18:42:00,84.0,-99.9,29.80,South,177,6.0,12.0,-999,-99.99,,,-99.99,,2013-05-22 22:42:00,
2013-05-22 18:52:00,83.0,-99.9,29.80,SW,236,-999.0,10.0,-999,-99.99,,,-99.99,,2013-05-22 22:52:00,
2013-05-22 19:22:00,83.0,-99.9,29.80,SW,236,-999.0,10.0,-999,-99.99,,,-99.99,,2013-05-22 23:22:00,
2013-05-22 19:32:00,83.0,-99.9,29.80,SW,236,-999.0,10.0,-999,-99.99,,,-99.99,,2013-05-22 23:32:00,
2013-05-22 19:42:00,83.0,-99.9,29.80,SW,236,-999.0,10.0,-999,-99.99,,,-99.99,,2013-05-22 23:42:00,
2013-05-22 19:52:00,79.0,-99.9,29.81,SW,219,8.0,11.0,-999,-99.99,,,-99.99,,2013-05-22 23:52:00,
2013-05-22 20:32:00,79.0,-99.9,29.81,SW,219,8.0,11.0,-999,-99.99,,,-99.99,,2013-05-23 00:32:00,
2013-05-22 20:42:00,79.0,-99.9,29.81,SW,219,8.0,11.0,-999,-99.99,,,-99.99,,2013-05-23 00:42:00,
2013-05-22 20:52:00,77.0,-99.9,29.83,WNW,295,-999.0,6.0,-999,-99.99,,,-99.99,,2013-05-23 00:52:00,
2013-05-22 21:32:00,77.0,-99.9,29.83,WNW,295,-999.0,6.0,-999,-99.99,,,-99.99,,2013-05-23 01:32:00,
2013-05-22 21:42:00,77.0,-99.9,29.83,WNW,295,-999.0,6.0,-999,-99.99,,,-99.99,,2013-05-23 01:42:00,
2013-05-22 21:52:00,75.0,-99.9,29.85,SW,229,8.0,10.0,-999,-99.99,,,-99.99,,2013-05-23 01:52:00,
2013-05-22 22:32:00,75.0,-99.9,29.85,SW,229,8.0,10.0,-999,-99.99,,,-99.99,,2013-05-23 02:32:00,
2013-05-22 22:42:00,75.0,-99.9,29.85,SW,229,8.0,10.0,-999,-99.99,,,-99.99,,2013-05-23 02:42:00,
2013-05-22 22:52:00,74.0,-99.9,29.87,WSW,249,-999.0,9.0,-999,-99.99,,,-99.99,,2013-05-23 02:52:00,
2013-05-22 23:22:00,74.0,-99.9,29.87,WSW,249,-999.0,9.0,-999,-99.99,,,-99.99,,2013-05-23 03:22:00,
2013-05-22 23:33:00,74.0,-99.9,29.87,WSW,249,-999.0,9.0,-999,-99.99,,,-99.99,,2013-05-23 03:33:00,
2013-05-22 23:43:00,74.0,-99.9,29.87,WSW,249,-999.0,9.0,-999,-99.99,,,-99.99,,2013-05-23 03:43:00,
2013-05-22 23:52:00,73.0,-99.9,29.87,WSW,250,-999.0,3.0,-999,-99.99,,,-99.99,,2013-05-23 03:52:00,